This is the latest recevied weather packets stored in our database for station/object DL2GPS-3. If no packets are shown the sender has not sent any weather packets the latest 10 day(s).
| Time | Temp. | Humidity | Pressure | Rain* | Wind** | Luminosity | Snow |
|---|---|---|---|---|---|---|---|
| 1777477587 | 15.56° C | 34% | 1020.8 hPa | - | - | - | - |
| 1777476986 | 15.56° C | 34% | 1020.9 hPa | - | - | - | - |
| 1777476385 | 15.56° C | 35% | 1020.9 hPa | - | - | - | - |
| 1777475785 | 15.56° C | 33% | 1020.7 hPa | - | - | - | - |
| 1777475184 | 15.56° C | 34% | 1020.9 hPa | - | - | - | - |
| 1777474583 | 16.11° C | 34% | 1020.7 hPa | - | - | - | - |
| 1777473982 | 16.11° C | 35% | 1020.9 hPa | - | - | - | - |
| 1777473381 | 16.11° C | 35% | 1020.9 hPa | - | - | - | - |
| 1777472780 | 16.11° C | 34% | 1020.9 hPa | - | - | - | - |
| 1777472179 | 15.56° C | 34% | 1020.6 hPa | - | - | - | - |
| 1777471579 | 16.11° C | 34% | 1020.7 hPa | - | - | - | - |
| 1777470978 | 16.11° C | 33% | 1020.8 hPa | - | - | - | - |
| 1777470377 | 16.67° C | 33% | 1020.7 hPa | - | - | - | - |
| 1777469777 | 16.67° C | 34% | 1020.7 hPa | - | - | - | - |
| 1777469176 | 16.67° C | 34% | 1020.8 hPa | - | - | - | - |
| 1777468575 | 16.67° C | 34% | 1020.6 hPa | - | - | - | - |
| 1777467974 | 16.67° C | 34% | 1020.9 hPa | - | - | - | - |
| 1777467374 | 16.67° C | 34% | 1020.6 hPa | - | - | - | - |
| 1777466773 | 16.67° C | 34% | 1020.5 hPa | - | - | - | - |
| 1777466172 | 16.67° C | 36% | 1020.7 hPa | - | - | - | - |
| 1777465571 | 16.11° C | 35% | 1021 hPa | - | - | - | - |
| 1777464970 | 17.22° C | 35% | 1020.7 hPa | - | - | - | - |
| 1777464369 | 16.67° C | 37% | 1020.8 hPa | - | - | - | - |
| 1777463768 | 16.67° C | 36% | 1020.7 hPa | - | - | - | - |
| 1777463167 | 16.67° C | 34% | 1020.8 hPa | - | - | - | - |
* Rain since midnight (hover to see other rain measurements)
** Current wind speed in m/s (hover to see current wind gust speed)